FW5359 Weather Reports


time (UTC)temp
F
wind
direction
speed
knots
gust
knots
rain 1hr
in
rain 24hr
in
rain mn
in
humidity
%
barometer
mb
20260905000132 87 74 0.9 3.5 0.00 0.00 0.00 64 1013.5
20260904235632 87 122 1.7 6.1 0.00 0.00 0.00 64 1013.3
20260904235132 87 121 1.7 6.1 0.00 0.00 0.00 64 1013.3
20260904234631 87 107 0.9 2.6 0.00 0.00 0.00 64 1013.2
20260904234132 86 94 0.9 2.6 0.00 0.00 0.00 64 1013.2
20260904233902 86 94 0.9 2.6 0.00 0.00 0.00 63 1013.2
20260904233130 86 94 0.9 2.6 0.00 0.00 0.00 63 1013.2
20260904232623 86 94 0.9 3.5 0.00 0.00 0.00 63 1013.3
20260904232117 87 93 1.7 3.5 0.00 0.00 0.00 64 1013.2
20260904231841 87 93 0.9 3.5 0.00 0.00 0.00 63 1013.2
20260904231105 87 102 0.9 3.5 0.00 0.00 0.00 63 1013.2
20260904230559 87 101 0.9 2.6 0.00 0.00 0.00 64 1013.2
20260904230053 87 101 1.7 4.3 0.00 0.00 0.00 63 1013.2
20260904225547 87 102 1.7 4.3 0.00 0.00 0.00 63 1013.3
20260904225041 87 112 0.9 4.3 0.00 0.00 0.00 63 1013.4
20260904224535 87 138 0.9 4.3 0.00 0.00 0.00 65 1013.4
20260904224027 87 85 0.9 3.5 0.00 0.00 0.00 67 1013.5
20260904223521 86 86 1.7 6.1 0.00 0.00 0.00 67 1013.5
20260904223246 87 76 1.7 6.1 0.00 0.00 0.00 68 1013.7
20260904222739 87 88 1.7 4.3 0.00 0.00 0.00 68 1013.7
20260904222002 87 85 1.7 3.5 0.00 0.00 0.00 70 1013.7
20260904221457 87 108 1.7 5.2 0.00 0.00 0.00 70 1013.8
20260904220951 87 103 2.6 7.0 0.00 0.00 0.00 70 1013.8
20260904220444 87 90 1.7 7.0 0.00 0.00 0.00 70 1013.9
20260904215939 86 94 1.7 7.0 0.00 0.00 0.00 70 1013.9
20260904215433 86 127 1.7 6.1 0.00 0.00 0.00 71 1013.9
20260904214925 86 115 1.7 6.1 0.00 0.00 0.00 71 1014.0
20260904214419 86 128 1.7 5.2 0.00 0.00 0.00 71 1014.1
20260904214145 86 86 1.7 3.5 0.00 0.00 0.00 72 1014.2
20260904213407 86 98 1.7 4.3 0.00 0.00 0.00 72 1014.2
20260904212901 86 67 1.7 5.2 0.00 0.00 0.00 73 1014.2
20260904212400 86 89 1.7 6.1 0.00 0.00 0.00 73 1014.3
20260904211849 86 117 1.7 6.1 0.00 0.00 0.00 73 1014.4
20260904210837 86 113 0.9 5.2 0.00 0.00 0.00 71 1014.4
20260904210330 86 115 0.9 5.2 0.00 0.00 0.00 71 1014.5
20260904205825 86 113 0.9 5.2 0.00 0.00 0.00 71 1014.6
20260904205319 86 113 0.9 5.2 0.00 0.00 0.00 71 1014.5
20260904204813 86 117 0.9 4.3 0.00 0.00 0.00 71 1014.6
20260904204307 86 119 1.7 4.3 0.00 0.00 0.00 71 1014.7
20260904203801 86 116 1.7 4.3 0.00 0.00 0.00 70 1014.7
20260904203255 86 128 1.7 7.0 0.00 0.00 0.00 70 1014.8
20260904202749 86 120 1.7 7.0 0.00 0.00 0.00 69 1014.9
20260904202243 87 89 1.7 6.1 0.00 0.00 0.00 69 1014.9
20260904201737 87 127 1.7 7.0 0.00 0.00 0.00 69 1014.9
20260904201230 87 93 1.7 7.0 0.00 0.00 0.00 69 1014.9
20260904200725 87 72 1.7 7.0 0.00 0.00 0.00 68 1014.9
20260904200451 87 119 1.7 7.0 0.00 0.00 0.00 68 1015.0
20260904195713 87 142 1.7 7.0 0.00 0.00 0.00 67 1014.9
20260904195207 87 100 0.9 7.0 0.00 0.00 0.00 68 1015.0
20260904194701 87 119 1.7 6.1 0.00 0.00 0.00 67 1015.0
20260904194425 87 119 1.7 6.1 0.00 0.00 0.00 67 1015.0
20260904193920 87 148 1.7 5.2 0.00 0.00 0.00 67 1015.2
20260904193143 87 136 1.7 5.2 0.00 0.00 0.00 66 1015.2
20260904192638 87 30 1.7 5.2 0.00 0.00 0.00 67 1015.3
20260904192130 87 177 1.7 6.1 0.00 0.00 0.00 66 1015.3
20260904191624 88 207 0.9 6.1 0.00 0.00 0.00 66 1015.3
20260904191118 88 93 1.7 4.3 0.00 0.00 0.00 67 1015.4
20260904190613 88 132 0.9 4.3 0.00 0.00 0.00 67 1015.4
20260904190107 87 165 0.9 5.2 0.00 0.00 0.00 68 1015.4
20260904185601 87 168 1.7 7.0 0.00 0.00 0.00 66 1015.4
20260904185055 87 116 1.7 6.1 0.00 0.00 0.00 66 1015.5
20260904184549 88 121 1.7 7.0 0.00 0.00 0.00 67 1015.5
20260904184043 88 150 1.7 7.0 0.00 0.00 0.00 66 1015.6
20260904183537 88 155 1.7 7.0 0.00 0.00 0.00 67 1015.6
20260904183030 88 169 1.7 7.0 0.00 0.00 0.00 67 1015.6
20260904182757 88 115 2.6 6.1 0.00 0.00 0.00 67 1015.7
20260904182023 88 84 2.6 6.1 0.00 0.00 0.00 66 1015.7
20260904181755 88 197 2.6 9.6 0.00 0.00 0.00 66 1015.8
20260904181021 89 210 2.6 9.6 0.00 0.00 0.00 65 1015.9
20260904180521 89 131 2.6 7.8 0.00 0.00 0.00 64 1015.9
20260904180021 89 126 2.6 7.8 0.00 0.00 0.00 65 1015.9
20260904175521 89 143 2.6 7.8 0.00 0.00 0.00 66 1015.9
20260904175020 88 126 2.6 7.8 0.00 0.00 0.00 67 1015.9
20260904174520 88 157 2.6 7.0 0.00 0.00 0.00 66 1015.9
20260904174021 88 109 2.6 10.4 0.00 0.00 0.00 68 1016.0
20260904173521 88 163 2.6 10.4 0.00 0.00 0.00 67 1016.0
20260904173021 88 117 2.6 8.7 0.00 0.00 0.00 68 1016.1
20260904172521 88 163 2.6 8.7 0.00 0.00 0.00 66 1016.2
20260904172017 88 205 2.6 7.8 0.00 0.00 0.00 67 1016.3
20260904171517 88 115 1.7 7.8 0.00 0.00 0.00 67 1016.3
20260904171017 88 136 1.7 7.8 0.00 0.00 0.00 69 1016.4
20260904170017 87 167 1.7 6.1 0.00 0.00 0.00 70 1016.4
20260904165518 87 153 2.6 6.1 0.00 0.00 0.00 70 1016.5
20260904165018 86 72 2.6 7.8 0.00 0.00 0.00 71 1016.6
20260904164517 86 169 2.6 7.8 0.00 0.00 0.00 72 1016.6
20260904164018 86 128 2.6 7.8 0.00 0.00 0.00 71 1016.6
20260904163514 86 144 1.7 7.8 0.00 0.00 0.00 71 1016.6
20260904163012 87 124 1.7 4.3 0.00 0.00 0.00 70 1016.5
20260904162513 87 101 0.9 5.2 0.00 0.00 0.00 70 1016.6
20260904162014 87 146 1.7 7.0 0.00 0.00 0.00 72 1016.5
20260904161512 86 157 1.7 7.0 0.00 0.00 0.00 73 1016.5
20260904161243 85 153 1.7 7.8 0.00 0.00 0.00 74 1016.5
20260904160509 85 157 2.6 7.8 0.00 0.00 0.00 74 1016.5
20260904160009 85 94 2.6 9.6 0.00 0.00 0.00 75 1016.6
20260904155509 85 115 2.6 9.6 0.00 0.00 0.00 74 1016.6
20260904155242 85 171 2.6 6.1 0.00 0.00 0.00 74 1016.6
20260904154509 85 171 2.6 7.0 0.00 0.00 0.00 74 1016.6
20260904154007 85 119 2.6 8.7 0.00 0.00 0.00 76 1016.5
20260904153507 84 115 2.6 8.7 0.00 0.00 0.00 77 1016.4
20260904153007 84 71 1.7 6.1 0.00 0.00 0.00 78 1016.4
20260904152509 83 123 1.7 6.1 0.00 0.00 0.00 79 1016.3
20260904152002 82 126 1.7 8.7 0.00 0.00 0.00 80 1016.2
20260904151456 82 155 1.7 8.7 0.00 0.00 0.00 79 1016.2
20260904150950 83 149 0.9 7.0 0.00 0.00 0.00 80 1016.2
20260904150444 83 225 1.7 6.1 0.00 0.00 0.00 79 1016.2
20260904145939 83 91 0.9 6.1 0.00 0.00 0.00 79 1016.2
20260904145433 82 116 1.7 6.1 0.00 0.00 0.00 81 1016.2
20260904144927 82 138 1.7 8.7 0.00 0.00 0.00 81 1016.2
20260904144422 82 146 1.7 8.7 0.00 0.00 0.00 83 1016.3
20260904143915 81 132 1.7 6.1 0.00 0.00 0.00 84 1016.2
20260904143408 80 176 2.6 7.0 0.00 0.00 0.00 84 1016.2
20260904142902 80 169 2.6 7.0 0.00 0.00 0.00 84 1016.2
20260904142356 80 217 2.6 7.0 0.00 0.00 0.00 84 1016.2
20260904141850 80 165 1.7 6.1 0.00 0.00 0.00 85 1016.2
20260904141344 80 153 1.7 7.8 0.00 0.00 0.00 85 1016.0
20260904140838 80 205 1.7 7.8 0.00 0.00 0.00 86 1016.1
20260904140332 80 166 1.7 5.2 0.00 0.00 0.00 86 1016.1
20260904140059 79 182 0.9 5.2 0.00 0.00 0.00 86 1016.1
20260904135333 79 175 1.7 5.2 0.00 0.00 0.00 86 1016.2
20260904134308 79 181 0.9 6.1 0.00 0.00 0.00 87 1016.0
20260904134034 79 181 1.7 7.0 0.00 0.00 0.00 87 1016.0
20260904133256 79 177 1.7 7.0 0.00 0.00 0.00 87 1016.0
20260904132750 78 169 1.7 5.2 0.00 0.00 0.00 87 1015.9
20260904132244 78 175 2.6 7.0 0.00 0.00 0.00 87 1015.8
20260904131738 78 160 2.6 7.8 0.00 0.00 0.00 87 1015.8
20260904131232 78 195 0.9 5.2 0.00 0.00 0.00 87 1015.6
20260904130726 78 153 1.7 5.2 0.00 0.00 0.00 88 1015.5
20260904130452 78 155 1.7 5.2 0.00 0.00 0.00 87 1015.5
20260904125714 78 160 0.9 4.3 0.00 0.00 0.00 87 1015.4
20260904125439 78 161 0.9 6.1 0.00 0.00 0.00 88 1015.5
20260904124933 78 150 0.9 5.2 0.00 0.00 0.00 87 1015.5
20260904124157 78 147 0.9 3.5 0.00 0.00 0.00 87 1015.4
20260904123651 78 145 0.9 3.5 0.00 0.00 0.00 87 1015.3
20260904123145 78 134 0.9 4.3 0.00 0.00 0.00 87 1015.3
20260904122639 78 129 0.9 3.5 0.00 0.00 0.00 87 1015.2
20260904122136 78 179 0.9 5.2 0.00 0.00 0.00 87 1015.2
20260904121906 78 202 0.9 6.1 0.00 0.00 0.00 87 1015.2
20260904121136 78 153 0.9 6.1 0.00 0.00 0.00 87 1015.0
20260904120634 78 233 0.9 4.3 0.00 0.00 0.00 87 1015.0
20260904120132 78 171 1.7 4.3 0.00 0.00 0.00 87 1014.9
20260904115632 78 194 0.9 4.3 0.00 0.00 0.00 87 1015.0
20260904115132 78 169 0.9 4.3 0.00 0.00 0.00 87 1014.9
20260904114630 78 169 1.7 6.1 0.00 0.00 0.00 87 1014.9
20260904114130 78 142 1.7 7.0 0.00 0.00 0.00 87 1014.8
20260904113630 78 157 0.9 7.0 0.00 0.00 0.00 87 1014.8
20260904113129 78 178 1.7 4.3 0.00 0.00 0.00 87 1014.7
20260904112632 78 167 0.9 3.5 0.00 0.00 0.00 87 1014.7
20260904112131 78 167 0.9 5.2 0.00 0.00 0.00 86 1014.5
20260904111628 78 165 0.9 5.2 0.00 0.00 0.00 86 1014.5
20260904111128 78 157 0.9 5.2 0.00 0.00 0.00 86 1014.3
20260904110628 78 154 0.9 5.2 0.00 0.00 0.00 86 1014.4
20260904110128 78 197 0.9 5.2 0.00 0.00 0.00 85 1014.3
20260904105624 79 211 0.9 5.2 0.00 0.00 0.00 85 1014.4
20260904105123 79 194 0.9 4.3 0.00 0.00 0.00 85 1014.4
20260904104623 79 178 0.9 5.2 0.00 0.00 0.00 85 1014.4
20260904104123 79 166 0.9 5.2 0.00 0.00 0.00 85 1014.5
20260904103624 79 148 0.9 4.3 0.00 0.00 0.00 85 1014.4
20260904103124 79 196 1.7 4.3 0.00 0.00 0.00 85 1014.4
20260904102624 79 190 1.7 5.2 0.00 0.00 0.00 84 1014.4
20260904101624 79 191 1.7 5.2 0.00 0.00 0.00 84 1014.4
20260904101123 79 225 1.7 7.8 0.00 0.00 0.00 84 1014.4
20260904100623 79 267 1.7 8.7 0.00 0.00 0.00 84 1014.4
20260904100123 79 182 0.9 8.7 0.00 0.00 0.00 83 1014.3
20260904095854 79 222 0.9 4.3 0.00 0.00 0.00 84 1014.3
20260904095123 79 208 1.7 5.2 0.00 0.00 0.00 84 1014.3
20260904094623 79 355 0.9 5.2 0.00 0.00 0.00 84 1014.4
20260904094353 79 169 0.9 5.2 0.00 0.00 0.00 84 1014.3
20260904093622 79 227 1.7 8.7 0.00 0.00 0.00 84 1014.3
20260904093122 79 208 2.6 8.7 0.00 0.00 0.00 84 1014.3
20260904092621 79 205 2.6 6.1 0.00 0.00 0.00 84 1014.3
20260904092115 79 173 1.7 6.1 0.00 0.00 0.00 83 1014.3
20260904091609 79 176 2.6 6.1 0.00 0.00 0.00 83 1014.3
20260904091103 79 239 1.7 7.8 0.00 0.00 0.00 83 1014.3
20260904090556 79 194 1.7 7.8 0.00 0.00 0.00 83 1014.4
20260904090050 79 180 1.7 5.2 0.00 0.00 0.00 84 1014.3
20260904085545 79 239 1.7 5.2 0.00 0.00 0.00 83 1014.4
20260904085038 79 201 1.7 6.1 0.00 0.00 0.00 84 1014.3
20260904084533 79 165 1.7 6.1 0.00 0.00 0.00 83 1014.3
20260904084257 79 187 1.7 6.1 0.00 0.00 0.00 83 1014.5
20260904083014 79 123 2.6 7.0 0.00 0.00 0.00 83 1014.4
20260904082738 79 225 1.7 7.0 0.00 0.00 0.00 83 1014.4
20260904082231 79 269 0.9 6.1 0.00 0.00 0.00 83 1014.4
20260904081455 79 202 0.9 4.3 0.00 0.00 0.00 83 1014.5
20260904081219 79 169 0.9 7.0 0.00 0.00 0.00 83 1014.5
20260904080443 79 180 0.9 7.0 0.00 0.00 0.00 83 1014.5
20260904075937 79 192 0.9 6.1 0.00 0.00 0.00 83 1014.6
20260904075431 79 155 1.7 6.1 0.00 0.00 0.00 83 1014.5
20260904074925 79 150 1.7 6.1 0.00 0.00 0.00 83 1014.6
20260904074650 80 218 0.9 5.2 0.00 0.00 0.00 82 1014.7
20260904073914 80 157 0.9 5.2 0.00 0.00 0.00 82 1014.7
20260904073407 80 149 0.9 4.3 0.00 0.00 0.00 82 1014.7
20260904072901 80 147 0.9 6.1 0.00 0.00 0.00 82 1014.9
20260904072626 80 165 1.7 6.1 0.00 0.00 0.00 82 1014.9
20260904071848 80 166 0.9 5.2 0.00 0.00 0.00 82 1015.0
20260904071343 80 165 1.7 7.0 0.00 0.00 0.00 82 1015.0
20260904070836 80 158 1.7 7.0 0.00 0.00 0.00 82 1015.2
20260904070331 80 148 0.9 6.1 0.00 0.00 0.00 82 1015.2
20260904065825 80 161 0.9 5.2 0.00 0.00 0.00 81 1015.2
20260904065319 80 159 1.7 7.0 0.00 0.00 0.00 81 1015.0
20260904065045 80 146 1.7 7.0 0.00 0.00 0.00 81 1014.9
20260904064307 80 184 1.7 7.0 0.00 0.00 0.00 81 1015.0
20260904064032 80 189 1.7 7.0 0.00 0.00 0.00 81 1015.2
20260904063255 80 240 1.7 7.0 0.00 0.00 0.00 81 1015.0
20260904062749 80 265 0.9 7.0 0.00 0.00 0.00 81 1015.0
20260904062242 80 163 1.7 7.0 0.00 0.00 0.00 80 1015.2
20260904061737 80 144 2.6 7.0 0.00 0.00 0.00 80 1015.2
20260904061233 80 147 2.6 10.4 0.00 0.00 0.00 80 1015.2
20260904060726 80 157 3.5 10.4 0.00 0.00 0.00 80 1015.0
20260904060452 80 122 2.6 10.4 0.00 0.00 0.00 80 1015.0
20260904055715 80 161 1.7 9.6 0.00 0.00 0.00 80 1015.3
20260904055437 81 184 2.6 8.7 0.00 0.00 0.00 79 1015.2
20260904054701 81 254 3.5 9.6 0.00 0.00 0.00 79 1015.0
20260904054155 81 190 3.5 9.6 0.00 0.00 0.00 79 1015.0
20260904053649 81 149 2.6 8.7 0.00 0.00 0.00 78 1015.0
20260904053143 81 150 1.7 7.0 0.00 0.00 0.00 78 1015.2
20260904052637 81 186 2.6 7.8 0.00 0.00 0.00 78 1015.3
20260904052131 81 178 3.5 7.8 0.00 0.00 0.00 78 1015.2
20260904051855 81 174 3.5 13.0 0.00 0.00 0.00 77 1015.2
20260904051119 81 315 3.5 13.0 0.00 0.00 0.00 77 1015.0
20260904050613 81 175 2.6 9.6 0.00 0.00 0.00 77 1015.2
20260904050107 82 173 3.5 9.6 0.00 0.00 0.00 77 1015.2
20260904045600 82 147 3.5 8.7 0.00 0.00 0.00 77 1015.2
20260904045054 82 169 4.3 10.4 0.00 0.00 0.00 76 1014.9
20260904044548 82 157 3.5 10.4 0.00 0.00 0.00 75 1015.0
20260904044041 82 107 2.6 7.8 0.00 0.00 0.00 75 1014.9
20260904043535 82 157 2.6 9.6 0.00 0.00 0.00 74 1014.8
20260904043030 83 165 3.5 9.6 0.00 0.00 0.00 73 1014.6
20260904042524 83 159 3.5 12.2 0.00 0.00 0.00 71 1014.5
20260904042018 83 127 2.6 9.6 0.00 0.00 0.00 70 1014.4
20260904041511 84 140 2.6 9.6 0.00 0.00 0.00 69 1014.5
20260904041004 84 86 3.5 7.8 0.00 0.00 0.00 68 1014.4
20260904040457 84 123 3.5 7.8 0.00 0.00 0.00 67 1014.5
20260904035952 84 224 2.6 11.3 0.00 0.00 0.00 65 1014.6
20260904035446 85 178 2.6 11.3 0.00 0.00 0.00 65 1014.7
20260904034940 85 125 3.5 9.6 0.00 0.00 0.00 64 1014.6
20260904034434 85 146 3.5 9.6 0.00 0.00 0.00 64 1014.7
20260904034159 85 155 3.5 9.6 0.00 0.00 0.00 64 1014.5
20260904033422 85 163 3.5 9.6 0.00 0.00 0.00 64 1014.6
20260904032915 85 194 4.3 11.3 0.00 0.00 0.00 64 1014.5
20260904032409 85 156 4.3 11.3 0.00 0.00 0.00 63 1014.5
20260904031358 86 121 2.6 7.8 0.00 0.00 0.00 63 1014.3
20260904030852 86 126 1.7 7.0 0.00 0.00 0.00 63 1014.1
20260904030347 86 142 1.7 5.2 0.00 0.00 0.00 63 1014.2
20260904030110 86 161 1.7 7.0 0.00 0.00 0.00 63 1014.0
20260904025604 86 138 1.7 7.0 0.00 0.00 0.00 63 1013.8
20260904025058 86 126 1.7 7.0 0.00 0.00 0.00 62 1013.8
20260904024322 86 112 2.6 7.0 0.00 0.00 0.00 62 1013.7
20260904023816 86 126 2.6 7.0 0.00 0.00 0.00 62 1013.7
20260904023310 86 126 2.6 7.0 0.00 0.00 0.00 62 1013.7
20260904022805 86 138 2.6 7.8 0.00 0.00 0.00 61 1013.5
20260904022258 86 119 3.5 9.6 0.00 0.00 0.00 61 1013.3
20260904021751 86 126 3.5 9.6 0.00 0.00 0.00 61 1013.2
20260904021246 86 123 2.6 8.7 0.00 0.00 0.00 61 1013.2
20260904021010 87 110 2.6 7.8 0.00 0.00 0.00 61 1013.1
20260904020505 87 81 2.6 8.7 0.00 0.00 0.00 61 1013.0
20260904015727 87 137 2.6 8.7 0.00 0.00 0.00 61 1013.0
20260904015222 87 117 4.3 12.2 0.00 0.00 0.00 61 1012.8
20260904014722 87 139 5.2 12.2 0.00 0.00 0.00 60 1012.8
20260904014452 88 118 4.3 12.2 0.00 0.00 0.00 60 1012.8
20260904013724 88 102 3.5 11.3 0.00 0.00 0.00 60 1012.8
20260904013222 88 138 3.5 11.3 0.00 0.00 0.00 60 1012.8
20260904012722 89 102 4.3 10.4 0.00 0.00 0.00 59 1012.6
20260904012222 89 101 5.2 13.9 0.00 0.00 0.00 58 1012.6
20260904011722 90 149 5.2 13.9 0.00 0.00 0.00 58 1012.6
20260904011452 90 109 4.3 10.4 0.00 0.00 0.00 57 1012.6
20260904010220 91 94 4.3 13.0 0.00 0.00 0.00 55 1012.0
20260904005950 92 114 4.3 13.0 0.00 0.00 0.00 54 1011.9
20260904005220 92 73 5.2 11.3 0.00 0.00 0.00 53 1011.8
20260904004720 92 107 4.3 11.3 0.00 0.00 0.00 52 1011.8
20260904004220 93 134 3.5 11.3 0.00 0.00 0.00 51 1011.7
20260904003720 93 136 3.5 11.3 0.00 0.00 0.00 51 1011.7
20260904003220 93 111 3.5 8.7 0.00 0.00 0.00 50 1011.6
20260904002719 94 105 3.5 9.6 0.00 0.00 0.00 50 1011.5
20260904002217 94 69 3.5 13.9 0.00 0.00 0.00 49 1011.5
20260904001718 95 85 3.5 13.9 0.00 0.00 0.00 48 1011.4
20260904001218 95 94 2.6 8.7 0.00 0.00 0.00 47 1011.4
20260904000717 96 114 2.6 7.0 0.00 0.00 0.00 47 1011.3